GW1027 Weather Reports


Display with metric or nautical units.
time (UTC)temp
F
wind
direction
speed
MPH
gust
MPH
rain 1hr
in
rain 24hr
in
rain mn
in
humidity
%
barometer
mb
20260831013705 64 289 3.0 8.0 0.00 0.00 0.00 92 995.8
20260831013203 64 234 2.0 5.0 0.00 0.00 0.00 91 995.8
20260831012704 64 211 2.0 5.0 0.00 0.00 0.00 91 995.7
20260831012204 64 194 2.0 5.0 0.00 0.00 0.00 91 995.6
20260831011204 65 237 3.0 7.0 0.00 0.00 0.00 89 995.4
20260831010704 65 199 3.0 7.0 0.00 0.00 0.00 89 995.4
20260831010204 65 172 3.0 3.0 0.00 0.00 0.00 90 995.3
20260831005703 65 142 2.0 3.0 0.00 0.00 0.00 89 995.4
20260831005204 65 203 3.0 3.0 0.00 0.00 0.00 89 995.3
20260831004703 65 161 3.0 3.0 0.00 0.00 0.00 88 995.2
20260831004204 66 204 3.0 3.0 0.00 0.00 0.00 87 995.2
20260831003703 66 168 3.0 3.0 0.00 0.00 0.00 86 995.1
20260831003203 66 172 3.0 3.0 0.00 0.00 0.00 87 995.1
20260831002703 66 181 3.0 3.0 0.00 0.00 0.00 86 995.1
20260831001704 66 201 2.0 3.0 0.00 0.00 0.00 86 994.9
20260831001203 66 223 1.0 3.0 0.00 0.00 0.00 85 994.8
20260831000204 67 182 2.0 3.0 0.00 0.00 0.00 85 994.7
20260830235704 67 231 2.0 3.0 0.00 0.00 0.00 86 994.7
20260830235204 67 126 2.0 5.0 0.00 0.00 0.00 86 994.7
20260830234703 67 221 2.0 3.0 0.00 0.00 0.00 85 994.7
20260830234204 67 234 3.0 5.0 0.00 0.00 0.00 85 994.6
20260830233703 67 175 2.0 3.0 0.00 0.00 0.00 86 994.5
20260830233204 67 143 2.0 3.0 0.00 0.00 0.00 84 994.5
20260830232204 67 161 3.0 3.0 0.00 0.00 0.00 83 994.4
20260830231204 67 170 2.0 3.0 0.00 0.00 0.00 88 994.4
20260830230703 67 61 2.0 3.0 0.00 0.00 0.00 87 994.3
20260830230204 67 163 3.0 3.0 0.00 0.00 0.00 88 994.2
20260830225704 67 152 2.0 3.0 0.00 0.00 0.00 90 994.3
20260830225204 67 179 3.0 3.0 0.00 0.00 0.00 89 994.4
20260830224703 67 63 2.0 3.0 0.00 0.00 0.00 85 994.4
20260830224203 66 182 1.0 2.0 0.00 0.00 0.00 89 994.3
20260830223704 66 142 2.0 3.0 0.00 0.00 0.00 92 994.3
20260830223204 66 272 2.0 3.0 0.00 0.00 0.00 90 994.2
20260830222203 66 223 2.0 2.0 0.00 0.00 0.00 94 994.0
20260830221703 66 217 2.0 3.0 0.00 0.00 0.00 94 994.2
20260830220704 67 49 1.0 3.0 0.00 0.00 0.00 93 994.2
20260830215704 67 252 1.0 2.0 0.00 0.00 0.00 93 994.2
20260830215204 67 316 1.0 2.0 0.00 0.00 0.00 92 994.2
20260830214204 68 310 3.0 5.0 0.00 0.00 0.00 92 994.2
20260830213703 68 311 1.0 3.0 0.00 0.00 0.00 88 994.3
20260830213204 69 252 1.0 5.0 0.00 0.00 0.00 90 994.2
20260830212704 70 332 1.0 5.0 0.00 0.00 0.00 84 994.2
20260830212204 70 292 2.0 3.0 0.00 0.00 0.00 82 994.1
20260830211704 71 346 1.0 2.0 0.00 0.00 0.00 81 994.1
20260830211204 72 5 1.0 2.0 0.00 0.00 0.00 78 994.2
20260830210704 72 159 1.0 2.0 0.00 0.00 0.00 76 994.1
20260830204704 73 39 0.0 2.0 0.00 0.00 0.00 75 994.1
20260830204203 73 3 1.0 1.0 0.00 0.00 0.00 75 994.1
20260830203204 74 21 0.0 1.0 0.00 0.00 0.00 73 994.1
20260830202704 74 268 0.0 1.0 0.00 0.00 0.00 72 994.1
20260830202204 74 240 1.0 1.0 0.00 0.00 0.00 71 994.1
20260830201205 75 52 0.0 1.0 0.00 0.00 0.00 72 994.3
20260830200704 75 347 1.0 1.0 0.00 0.00 0.00 70 994.3
20260830200204 75 58 0.0 1.0 0.00 0.00 0.00 70 994.4
20260830195704 76 224 1.0 2.0 0.00 0.00 0.00 67 994.4
20260830194704 79 113 0.0 0.0 0.00 0.00 0.00 65 994.4
20260830193707 83 358 0.0 0.0 0.00 0.00 0.00 54 994.5
20260830193205 85 332 1.0 1.0 0.00 0.00 0.00 54 994.5
20260830192703 86 120 0.0 1.0 0.00 0.00 0.00 48 994.5
20260830192204 86 308 0.0 0.0 0.00 0.00 0.00 46 994.5
20260830191704 85 308 0.0 6.0 0.00 0.00 0.00 47 994.6
20260830191205 82 282 1.0 3.0 0.00 0.00 0.00 53 994.6
20260830190703 82 170 1.0 3.0 0.00 0.00 0.00 53 994.8
20260830190203 82 138 1.0 2.0 0.00 0.00 0.00 53 994.9
20260830185704 81 355 1.0 2.0 0.00 0.00 0.00 56 995.0
20260830185207 81 197 0.0 2.0 0.00 0.00 0.00 57 995.0
20260830184703 81 21 2.0 2.0 0.00 0.00 0.00 55 995.0
20260830183704 82 176 1.0 2.0 0.00 0.00 0.00 54 995.0
20260830183204 82 280 0.0 3.0 0.00 0.00 0.00 54 995.0
20260830182704 83 175 0.0 1.0 0.00 0.00 0.00 51 995.1
20260830181704 83 338 1.0 3.0 0.00 0.00 0.00 51 995.2
20260830181204 83 66 1.0 2.0 0.00 0.00 0.00 51 995.3
20260830180703 82 257 1.0 2.0 0.00 0.00 0.00 52 995.3
20260830180204 83 128 1.0 2.0 0.00 0.00 0.00 51 995.4
20260830175703 82 319 0.0 1.0 0.00 0.00 0.00 52 995.4
20260830175203 81 329 1.0 3.0 0.00 0.00 0.00 51 995.5
20260830174704 79 351 1.0 2.0 0.00 0.00 0.00 55 995.5
20260830174204 78 354 2.0 2.0 0.00 0.00 0.00 63 995.7
20260830173704 78 241 1.0 2.0 0.00 0.00 0.00 60 995.8
20260830172704 78 86 1.0 3.0 0.00 0.00 0.00 59 996.1
20260830172204 78 40 1.0 2.0 0.00 0.00 0.00 60 996.0
20260830171704 78 4 1.0 2.0 0.00 0.00 0.00 60 996.1
20260830171204 77 211 1.0 2.0 0.00 0.00 0.00 57 996.1
20260830170704 75 230 1.0 1.0 0.00 0.00 0.00 62 996.2
20260830170203 74 227 1.0 1.0 0.00 0.00 0.00 67 996.3
20260830165703 74 227 1.0 1.0 0.00 0.00 0.00 68 996.4
20260830165204 74 235 1.0 1.0 0.00 0.00 0.00 64 996.3
20260830164703 72 224 1.0 1.0 0.00 0.00 0.00 69 996.4
20260830163704 71 223 1.0 1.0 0.00 0.00 0.00 68 996.6
20260830163205 71 220 1.0 1.0 0.00 0.00 0.00 74 996.6
20260830162703 70 228 1.0 1.0 0.00 0.00 0.00 75 996.5
20260830162203 70 229 1.0 1.0 0.00 0.00 0.00 77 996.6
20260830161704 70 238 1.0 1.0 0.00 0.00 0.00 74 996.8
20260830160704 69 223 1.0 2.0 0.00 0.00 0.00 74 996.8
20260830160204 69 223 2.0 2.0 0.00 0.00 0.00 75 996.8
20260830155703 69 219 2.0 2.0 0.00 0.00 0.00 74 996.8
20260830155203 69 222 2.0 2.0 0.00 0.00 0.00 76 996.9
20260830154703 69 223 1.0 2.0 0.00 0.00 0.00 76 997.0
20260830154203 69 209 1.0 3.0 0.00 0.00 0.00 74 996.8
20260830152704 69 225 2.0 2.0 0.00 0.00 0.00 75 997.1
20260830152205 69 223 2.0 3.0 0.00 0.00 0.00 77 997.3
20260830151703 69 219 1.0 2.0 0.00 0.00 0.00 71 997.2
20260830151204 69 227 2.0 2.0 0.00 0.00 0.00 74 997.3
20260830150704 70 207 2.0 3.0 0.00 0.00 0.00 74 997.3
20260830150204 71 238 2.0 2.0 0.00 0.00 0.00 71 997.0
20260830145204 71 227 2.0 2.0 0.00 0.00 0.00 73 996.4
20260830144704 71 225 2.0 2.0 0.00 0.00 0.00 73 996.8
20260830144204 71 225 1.0 2.0 0.00 0.00 0.00 72 997.0
20260830143704 71 221 2.0 2.0 0.00 0.00 0.00 68 997.0
20260830143204 71 228 1.0 3.0 0.00 0.00 0.00 67 997.0
20260830142704 72 229 2.0 3.0 0.00 0.00 0.00 66 997.1
20260830142204 72 59 2.0 3.0 0.00 0.00 0.00 66 997.1
20260830141704 73 216 1.0 2.0 0.00 0.00 0.00 65 997.1
20260830141204 72 50 1.0 2.0 0.00 0.00 0.00 67 997.1
20260830140704 72 223 1.0 2.0 0.00 0.00 0.00 69 997.2
20260830135704 70 226 1.0 1.0 0.00 0.00 0.00 74 997.3
20260830135204 69 218 1.0 1.0 0.00 0.00 0.00 76 997.3
20260830134703 68 222 1.0 2.0 0.00 0.00 0.00 76 997.3
20260830134205 68 222 1.0 3.0 0.00 0.00 0.00 77 997.3
20260830133703 67 199 1.0 2.0 0.00 0.00 0.00 80 997.4
20260830133204 67 223 2.0 2.0 0.00 0.00 0.00 79 997.4
20260830132704 67 208 2.0 2.0 0.00 0.00 0.00 78 997.4
20260830131704 67 49 2.0 2.0 0.00 0.00 0.00 78 997.3
20260830131204 67 216 1.0 3.0 0.00 0.00 0.00 76 997.3
20260830130204 65 224 1.0 2.0 0.00 0.00 0.00 78 997.4
20260830125703 65 227 1.0 2.0 0.00 0.00 0.00 79 997.3
20260830124703 64 225 2.0 3.0 0.00 0.00 0.00 81 997.5
20260830124205 64 222 2.0 3.0 0.00 0.00 0.00 80 997.5
20260830123204 63 207 2.0 5.0 0.00 0.00 0.00 81 997.4
20260830122704 63 163 2.0 6.0 0.00 0.00 0.00 82 997.4
20260830122203 62 177 2.0 5.0 0.00 0.00 0.00 81 997.5
20260830121703 62 157 1.0 3.0 0.00 0.00 0.00 81 997.5
20260830121205 61 159 1.0 1.0 0.00 0.00 0.00 84 997.5
20260830120704 61 211 0.0 1.0 0.00 0.00 0.00 84 997.4
20260830115704 60 155 2.0 6.0 0.00 0.00 0.00 86 997.5
20260830115203 60 144 3.0 6.0 0.00 0.00 0.00 86 997.4
20260830114704 59 152 2.0 3.0 0.00 0.00 0.00 88 997.4
20260830114204 59 136 3.0 5.0 0.00 0.00 0.00 88 997.5
20260830113203 58 95 2.0 3.0 0.00 0.00 0.00 89 997.6
20260830112704 58 193 1.0 3.0 0.00 0.00 0.00 90 997.6
20260830111704 58 134 2.0 3.0 0.00 0.00 0.00 90 997.7
20260830111203 57 184 1.0 3.0 0.00 0.00 0.00 90 997.7
20260830110204 57 119 1.0 3.0 0.00 0.00 0.00 91 997.7
20260830105704 56 214 1.0 3.0 0.00 0.00 0.00 92 997.6
20260830104204 56 151 1.0 2.0 0.00 0.00 0.00 91 997.7
20260830103704 56 160 2.0 2.0 0.00 0.00 0.00 90 997.8
20260830103203 56 150 2.0 3.0 0.00 0.00 0.00 91 997.8
20260830102703 56 137 1.0 3.0 0.00 0.00 0.00 90 997.8
20260830102204 56 168 1.0 2.0 0.00 0.00 0.00 91 997.8
20260830101703 56 131 2.0 3.0 0.00 0.00 0.00 91 997.7
20260830101204 56 178 1.0 2.0 0.00 0.00 0.00 91 997.7
20260830100704 56 170 1.0 2.0 0.00 0.00 0.00 91 997.7
20260830100204 56 148 1.0 1.0 0.00 0.00 0.00 90 997.6
20260830095204 56 189 1.0 2.0 0.00 0.00 0.00 90 997.8
20260830094704 56 130 2.0 2.0 0.00 0.00 0.00 89 997.8
20260830094204 56 168 2.0 3.0 0.00 0.00 0.00 90 997.8
20260830093704 56 208 1.0 2.0 0.00 0.00 0.00 90 997.8
20260830093204 56 158 1.0 2.0 0.00 0.00 0.00 90 997.7
20260830092704 56 128 1.0 3.0 0.00 0.00 0.00 91 997.8
20260830092204 56 153 1.0 1.0 0.00 0.00 0.00 90 997.8
20260830091703 56 153 1.0 2.0 0.00 0.00 0.00 90 997.8
20260830091203 56 166 1.0 2.0 0.00 0.00 0.00 90 997.8
20260830085703 56 181 1.0 1.0 0.00 0.00 0.00 90 997.8
20260830085204 56 162 1.0 2.0 0.00 0.00 0.00 89 997.7
20260830084704 56 116 1.0 2.0 0.00 0.00 0.00 89 997.8
20260830084204 56 166 1.0 2.0 0.00 0.00 0.00 90 997.7
20260830083703 56 135 0.0 2.0 0.00 0.00 0.00 89 997.7
20260830083203 56 146 0.0 2.0 0.00 0.00 0.00 89 997.8
20260830082704 56 152 1.0 2.0 0.00 0.00 0.00 90 997.9
20260830082204 56 136 1.0 1.0 0.00 0.00 0.00 90 997.8
20260830081704 56 173 1.0 2.0 0.00 0.00 0.00 90 997.8
20260830081204 56 182 1.0 2.0 0.00 0.00 0.00 90 997.8
20260830080704 56 142 2.0 2.0 0.00 0.00 0.00 91 997.8
20260830075705 56 171 1.0 2.0 0.00 0.00 0.00 91 997.9
20260830075204 55 137 0.0 2.0 0.00 0.00 0.00 92 997.9
20260830074703 55 169 1.0 2.0 0.00 0.00 0.00 91 997.9
20260830074204 55 140 1.0 2.0 0.00 0.00 0.00 91 997.9
20260830073704 55 156 1.0 1.0 0.00 0.00 0.00 91 997.8
20260830072704 55 160 1.0 2.0 0.00 0.00 0.00 91 997.9
20260830072204 55 156 1.0 3.0 0.00 0.00 0.00 91 997.9
20260830071703 55 160 1.0 2.0 0.00 0.00 0.00 91 998.0
20260830071203 55 185 1.0 3.0 0.00 0.00 0.00 91 998.0
20260830070703 56 151 1.0 2.0 0.00 0.00 0.00 91 998.0
20260830070203 56 132 1.0 2.0 0.00 0.00 0.00 91 998.0
20260830065712 56 137 1.0 2.0 0.00 0.00 0.00 90 998.1
20260830065203 56 167 2.0 2.0 0.00 0.00 0.00 90 998.1
20260830064704 55 143 1.0 1.0 0.00 0.00 0.00 90 998.1
20260830064204 55 139 2.0 3.0 0.00 0.00 0.00 91 998.1
20260830063703 55 139 1.0 2.0 0.00 0.00 0.00 90 998.1
20260830063205 55 123 1.0 2.0 0.00 0.00 0.00 91 998.1
20260830062704 55 167 2.0 2.0 0.00 0.00 0.00 91 998.1
20260830062203 55 151 1.0 2.0 0.00 0.00 0.00 91 998.1
20260830061703 55 193 1.0 3.0 0.00 0.00 0.00 91 998.1
20260830061205 55 187 1.0 3.0 0.00 0.00 0.00 91 998.1
20260830060705 55 110 1.0 1.0 0.00 0.00 0.00 91 998.2
20260830060204 55 148 1.0 2.0 0.00 0.00 0.00 90 998.2
20260830055704 55 163 1.0 2.0 0.00 0.00 0.00 91 998.3
20260830055204 55 48 1.0 2.0 0.00 0.00 0.00 90 998.3
20260830054703 55 215 1.0 2.0 0.00 0.00 0.00 90 998.3
20260830054204 56 181 1.0 2.0 0.00 0.00 0.00 91 998.3
20260830053705 56 140 1.0 1.0 0.00 0.00 0.00 90 998.2
20260830053203 56 144 1.0 2.0 0.00 0.00 0.00 89 998.3
20260830052704 56 149 1.0 2.0 0.00 0.00 0.00 89 998.3
20260830052204 56 168 1.0 2.0 0.00 0.00 0.00 89 998.3
20260830051704 57 131 2.0 3.0 0.00 0.00 0.00 89 998.3
20260830051204 57 169 1.0 2.0 0.00 0.00 0.00 87 998.3
20260830050205 57 155 1.0 2.0 0.00 0.00 0.00 87 998.3
20260830045704 57 193 1.0 2.0 0.00 0.00 0.00 87 998.2
20260830045205 56 221 1.0 3.0 0.00 0.00 0.00 87 998.2
20260830044204 56 188 1.0 2.0 0.00 0.00 0.00 89 998.3
20260830042704 57 169 1.0 2.0 0.00 0.00 0.00 88 998.2
20260830042203 57 138 1.0 1.0 0.00 0.00 0.00 88 998.2
20260830041704 57 166 2.0 3.0 0.00 0.00 0.00 88 998.2
20260830041203 57 153 2.0 3.0 0.00 0.00 0.00 88 998.2
20260830040703 57 166 2.0 3.0 0.00 0.00 0.00 87 998.2
20260830040204 57 134 2.0 5.0 0.00 0.00 0.00 88 998.3
20260830035705 57 166 2.0 3.0 0.00 0.00 0.00 88 998.2
20260830035203 56 176 1.0 3.0 0.00 0.00 0.00 88 998.2
20260830034703 57 133 1.0 2.0 0.00 0.00 0.00 88 998.2
20260830034204 57 181 2.0 3.0 0.00 0.00 0.00 88 998.2
20260830033703 57 172 1.0 1.0 0.00 0.00 0.00 87 998.2
20260830033204 57 210 1.0 3.0 0.00 0.00 0.00 87 998.2
20260830032704 57 165 1.0 2.0 0.00 0.00 0.00 87 998.2
20260830032204 57 137 1.0 1.0 0.00 0.00 0.00 87 998.2
20260830031704 57 154 1.0 2.0 0.00 0.00 0.00 87 998.2
20260830031205 57 203 1.0 2.0 0.00 0.00 0.00 87 998.3
20260830030703 57 184 1.0 1.0 0.00 0.00 0.00 87 998.2
20260830030204 57 173 2.0 3.0 0.00 0.00 0.00 87 998.2
20260830025704 58 138 1.0 2.0 0.00 0.00 0.00 87 998.3
20260830025203 58 164 2.0 3.0 0.00 0.00 0.00 87 998.3
20260830024204 58 147 2.0 5.0 0.00 0.00 0.00 86 998.2
20260830023703 58 139 2.0 5.0 0.00 0.00 0.00 86 998.3
20260830022704 59 201 1.0 3.0 0.00 0.00 0.00 86 998.3
20260830022204 59 96 2.0 3.0 0.00 0.00 0.00 86 998.2
20260830021705 59 125 2.0 5.0 0.00 0.00 0.00 86 998.2
20260830021204 59 119 2.0 5.0 0.00 0.00 0.00 85 998.3
20260830020704 59 124 3.0 5.0 0.00 0.00 0.00 85 998.2
20260830020204 59 165 3.0 6.0 0.00 0.00 0.00 85 998.2
20260830015704 59 115 3.0 7.0 0.00 0.00 0.00 85 998.2
20260830015203 59 109 3.0 7.0 0.00 0.00 0.00 85 998.2
20260830014703 60 128 2.0 5.0 0.00 0.00 0.00 85 998.2